DLH5EC EDDF-EDDM

Flight info

Callsign DLH5EC
Flight time N/A
Altitude 23000
Route CINDY8S/18 CINDY Z74 HAREM T104 ROKIL
Aircraft A21N/M-SDE2E3FGHIRWXY/LB1

Departure

Time 2026-05-07 08:10
Airport Frankfurt Main Airport (EDDF)

Arrival

Time N/A
Airport Munich Airport (EDDM)
Time Latitude Longitude Altitude Speed Heading
2026-05-07 07:21 50.04655 8.56812 367 ft 0 kts 295°
2026-05-07 07:57 50.04651 8.56826 366 ft 4 kts 295°
2026-05-07 07:58 50.04639 8.56864 363 ft 3 kts 295°
2026-05-07 07:58 50.04632 8.56896 364 ft 4 kts 272°
2026-05-07 07:58 50.04639 8.56927 365 ft 4 kts 210°
2026-05-07 07:58 50.04663 8.56942 361 ft 4 kts 201°
2026-05-07 07:59 50.04665 8.56942 361 ft 4 kts 205°
2026-05-07 07:59 50.04652 8.56933 368 ft 1 kts 204°
2026-05-07 08:01 50.04644 8.56927 369 ft 4 kts 204°
2026-05-07 08:02 50.04627 8.56921 367 ft 6 kts 193°
2026-05-07 08:02 50.04607 8.56910 366 ft 6 kts 194°
2026-05-07 08:02 50.04545 8.56888 364 ft 11 kts 192°
2026-05-07 08:02 50.04468 8.56847 367 ft 13 kts 217°
2026-05-07 08:03 50.04424 8.56716 365 ft 15 kts 251°
2026-05-07 08:03 50.04387 8.56558 363 ft 16 kts 250°
2026-05-07 08:03 50.04346 8.56385 363 ft 18 kts 249°
2026-05-07 08:03 50.04320 8.56278 362 ft 8 kts 250°
2026-05-07 08:04 50.04303 8.56205 362 ft 8 kts 250°
2026-05-07 08:04 50.04280 8.56109 361 ft 11 kts 249°
2026-05-07 08:04 50.04251 8.55992 365 ft 13 kts 249°
2026-05-07 08:04 50.04218 8.55857 363 ft 14 kts 251°
2026-05-07 08:05 50.04182 8.55702 362 ft 16 kts 250°
2026-05-07 08:05 50.04142 8.55531 360 ft 18 kts 250°
2026-05-07 08:05 50.04096 8.55341 364 ft 20 kts 250°
2026-05-07 08:05 50.04046 8.55132 360 ft 21 kts 250°
2026-05-07 08:06 50.03992 8.54907 361 ft 23 kts 249°
2026-05-07 08:06 50.03936 8.54672 361 ft 24 kts 250°
2026-05-07 08:06 50.03883 8.54449 353 ft 16 kts 249°
2026-05-07 08:06 50.03827 8.54299 357 ft 14 kts 233°
2026-05-07 08:07 50.03784 8.54155 355 ft 16 kts 249°
2026-05-07 08:07 50.03743 8.53986 354 ft 18 kts 249°
2026-05-07 08:07 50.03699 8.53800 348 ft 19 kts 250°
2026-05-07 08:07 50.03650 8.53601 353 ft 20 kts 248°
2026-05-07 08:08 50.03597 8.53387 350 ft 22 kts 250°
2026-05-07 08:08 50.03543 8.53158 351 ft 23 kts 250°
2026-05-07 08:08 50.03484 8.52921 342 ft 24 kts 248°
2026-05-07 08:08 50.03426 8.52698 338 ft 15 kts 248°
2026-05-07 08:09 50.03403 8.52609 338 ft 5 kts 239°
2026-05-07 08:09 50.03360 8.52593 339 ft 8 kts 180°
2026-05-07 08:09 50.03260 8.52594 338 ft 37 kts 179°
2026-05-07 08:09 50.02731 8.52613 336 ft 115 kts 180°
2026-05-07 08:10 50.01691 8.52611 338 ft 183 kts 180°
2026-05-07 08:10 50.00263 8.52609 956 ft 217 kts 181°
2026-05-07 08:10 49.98675 8.52631 1924 ft 240 kts 180°
2026-05-07 08:10 49.96944 8.52877 2854 ft 255 kts 164°
2026-05-07 08:11 49.95501 8.54221 3538 ft 247 kts 131°
2026-05-07 08:11 49.94633 8.56533 3930 ft 245 kts 111°
2026-05-07 08:11 49.94014 8.58952 4829 ft 243 kts 105°
2026-05-07 08:11 49.93747 8.61589 5785 ft 262 kts 90°
2026-05-07 08:12 49.93722 8.64564 6759 ft 285 kts 88°
2026-05-07 08:12 49.93468 8.67687 7930 ft 303 kts 108°
2026-05-07 08:12 49.92458 8.70636 9193 ft 317 kts 124°
2026-05-07 08:12 49.91180 8.73517 10424 ft 332 kts 126°
2026-05-07 08:13 49.89789 8.76624 11031 ft 371 kts 125°
2026-05-07 08:13 49.88248 8.80138 11537 ft 413 kts 124°
2026-05-07 08:13 49.86619 8.83920 12797 ft 430 kts 123°
2026-05-07 08:13 49.84991 8.87742 14398 ft 430 kts 123°
2026-05-07 08:14 49.83327 8.91704 15662 ft 448 kts 122°
2026-05-07 08:14 49.81673 8.95723 17347 ft 436 kts 122°
2026-05-07 08:14 49.80050 8.99731 18482 ft 448 kts 122°
2026-05-07 08:14 49.78374 9.03849 19453 ft 452 kts 123°
2026-05-07 08:15 49.76575 9.07885 20371 ft 461 kts 125°
2026-05-07 08:15 49.74700 9.11961 21014 ft 467 kts 125°
2026-05-07 08:15 49.72844 9.16102 21553 ft 471 kts 124°
2026-05-07 08:15 49.70996 9.20314 22076 ft 475 kts 123°
2026-05-07 08:16 49.69174 9.24512 22589 ft 479 kts 123°
2026-05-07 08:16 49.67316 9.28806 22950 ft 484 kts 123°
2026-05-07 08:16 49.65425 9.33171 23008 ft 493 kts 123°
2026-05-07 08:16 49.63508 9.37595 23001 ft 501 kts 123°
2026-05-07 08:17 49.61551 9.42130 23084 ft 508 kts 123°
2026-05-07 08:17 49.59643 9.46582 24148 ft 491 kts 123°
2026-05-07 08:17 49.57802 9.51002 24562 ft 489 kts 121°
2026-05-07 08:17 49.55963 9.55398 24937 ft 489 kts 126°
2026-05-07 08:18 49.53620 9.59128 25003 ft 496 kts 141°
2026-05-07 08:18 49.50828 9.62334 25020 ft 507 kts 142°